This is the latest recevied weather packets stored in our database for station/object K8RRT. If no packets are shown the sender has not sent any weather packets the latest 10 day(s).
| Time | Temp. | Humidity | Pressure | Rain* | Wind** | Luminosity | Snow |
|---|---|---|---|---|---|---|---|
| 1778108319 | 13.33° C | 98% | 1008.4 hPa | 0 mm | - | 27 W/m² | - |
| 1778108016 | 13.33° C | 97% | 1008.6 hPa | 0 mm | - | 18 W/m² | - |
| 1778107713 | 13.89° C | 97% | 1008.1 hPa | 0 mm | - | 16 W/m² | - |
| 1778107411 | 13.89° C | 97% | 1008.6 hPa | 0 mm | - | 12 W/m² | - |
| 1778107107 | 13.89° C | 97% | 1008.6 hPa | 0 mm | - | 11 W/m² | - |
| 1778106802 | 13.89° C | 97% | 1008.6 hPa | 0 mm | - | 15 W/m² | - |
| 1778106500 | 13.89° C | 97% | 1008.4 hPa | 0 mm | - | 14 W/m² | - |
| 1778106194 | 13.89° C | 96% | 1008.2 hPa | 0 mm | - | 25 W/m² | - |
| 1778105893 | 13.89° C | 96% | 1008.1 hPa | 0 mm | - | 24 W/m² | - |
| 1778105590 | 13.89° C | 96% | 1008.2 hPa | 0 mm | - | 20 W/m² | - |
| 1778105288 | 13.89° C | 96% | 1008.1 hPa | 0 mm | - | 14 W/m² | - |
| 1778104982 | 13.89° C | 96% | 1008.1 hPa | 0 mm | - | 16 W/m² | - |
| 1778104679 | 13.89° C | 96% | 1008.1 hPa | 0 mm | - | 28 W/m² | - |
| 1778104375 | 13.89° C | 96% | 1007.9 hPa | 0 mm | - | 47 W/m² | - |
| 1778104071 | 13.89° C | 96% | 1008 hPa | 0 mm | - | 34 W/m² | - |
| 1778103768 | 13.89° C | 96% | 1008.1 hPa | 0 mm | - | 46 W/m² | - |
| 1778103467 | 13.89° C | 96% | 1007.7 hPa | 0 mm | - | 44 W/m² | - |
| 1778103163 | 13.89° C | 96% | 1007.8 hPa | 0 mm | - | 40 W/m² | - |
| 1778102861 | 13.89° C | 95% | 1007.7 hPa | 0 mm | - | 47 W/m² | - |
| 1778102556 | 13.89° C | 94% | 1007.7 hPa | 0 mm | - | 46 W/m² | - |
| 1778102252 | 13.89° C | 94% | 1007.7 hPa | 0 mm | - | 48 W/m² | - |
| 1778101948 | 13.89° C | 94% | 1008 hPa | 0 mm | - | 44 W/m² | - |
| 1778101646 | 13.89° C | 93% | 1007.9 hPa | 0 mm | - | 42 W/m² | - |
| 1778101342 | 13.89° C | 93% | 1007.7 hPa | 0 mm | - | 54 W/m² | - |
| 1778101040 | 13.89° C | 93% | 1007.9 hPa | 0 mm | - | 72 W/m² | - |
* Rain latest hour (hover to see other rain measurements)
** Current wind speed in m/s (hover to see current wind gust speed)